Location: Unspecified
(44.4377°N, 88.0525°W)
Time: 08:04:22
(UTC-05:00)

Cosmos 2058 - Visible Passes

Search period start: 26 April 2015 00:00
Search period end: 06 May 2015 00:00
Orbit: 566 x 590 km, 82.5° (Epoch: 26 April)

Date Brightness Start Highest point End Pass type
(mag) Time Alt. Az. Time Alt. Az. Time Alt. Az.
26 Apr 5.3 04:51:58 10° SE 04:55:18 25° E 04:58:42 10° NE visible
27 Apr 4.7 04:56:05 10° SSE 04:59:45 33° E 05:03:30 10° NNE visible
28 Apr 4.1 05:00:19 10° SSE 05:04:14 46° E 05:08:12 10° NNE visible
29 Apr 3.4 05:04:39 10° S 05:08:43 64° E 05:12:49 10° NNE visible
30 Apr 2.9 05:09:07 10° S 05:13:13 89° E 05:17:22 10° N visible
01 May 6.1 03:40:43 10° E 03:41:13 10° E 03:41:58 10° ENE visible
02 May 5.7 03:43:31 10° ESE 03:45:36 14° E 03:47:53 10° NE visible
03 May 5.4 03:47:10 10° SE 03:50:01 19° E 03:53:00 10° NE visible
04 May 5.0 03:51:04 10° SE 03:54:25 25° E 03:57:52 10° NNE visible
05 May 4.4 03:55:08 10° SSE 03:58:50 34° E 04:02:36 10° NNE visible
